Location: ??????????
(48.5701°N, 37.7703°E)
Time: 19:16:55
(UTC+00:00)

Cosmos 1763 Rocket - Pass Details

Date: 14 July 2020
Orbit: 732 x 781 km, 74.0° (Epoch: 11 August)

Event Time Altitude Azimuth Distance (km) Brightness Sun altitude
Rises 00:42:15 0° 334° (NNW) 3,240 7.0 -8.3°
Reaches altitude 10° 00:44:39 10° 332° (NNW) 2,317 6.2 -8.0°
Maximum altitude 00:49:51 63° 252° (WSW) 861 3.6 -7.4°
Drops below altitude 10° 00:55:03 10° 172° (S) 2,323 5.7 -6.8°
Sets 00:57:27 0° 169° (S) 3,250 6.4 -6.5°
